Time,TemperatureF,DewpointF,PressureIn,WindDirection,WindDirectionDegrees,WindSpeedMPH,WindSpeedGustMPH,Humidity,HourlyPrecipIn,Conditions,Clouds,dailyrainin,SoftwareType,DateUTC
2013-04-21 00:01:00,32.9,0.9,30.42,ESE,108,4.0,9.0,25,0.00,,,0.00,Weather View 32 v70,2013-04-21 05:01:00,
2013-04-21 00:06:00,32.2,0.3,30.42,SE,126,5.0,9.0,25,0.00,,,0.00,Weather View 32 v70,2013-04-21 05:06:00,
2013-04-21 00:11:00,32.5,-1.2,30.42,SE,138,3.0,9.0,23,0.00,,,0.00,Weather View 32 v70,2013-04-21 05:11:00,
2013-04-21 00:16:00,32.7,-1.0,30.42,SE,124,5.0,9.0,23,0.00,,,0.00,Weather View 32 v70,2013-04-21 05:16:00,
2013-04-21 00:21:00,32.5,-1.2,30.42,ESE,104,6.0,9.0,23,0.00,,,0.00,Weather View 32 v70,2013-04-21 05:21:00,
2013-04-21 00:26:00,32.2,-1.5,30.42,SE,126,4.0,8.0,23,0.00,,,0.00,Weather View 32 v70,2013-04-21 05:26:00,
2013-04-21 00:31:00,32.4,-1.3,30.42,ESE,106,6.0,9.0,23,0.00,,,0.00,Weather View 32 v70,2013-04-21 05:31:00,
2013-04-21 00:36:00,32.2,-1.5,30.42,SE,125,5.0,9.0,23,0.00,,,0.00,Weather View 32 v70,2013-04-21 05:36:00,
2013-04-21 00:41:00,32.2,-1.5,30.42,ESE,103,3.0,9.0,23,0.00,,,0.00,Weather View 32 v70,2013-04-21 05:41:00,
2013-04-21 00:46:00,32.2,-1.5,30.42,ESE,114,5.0,9.0,23,0.00,,,0.00,Weather View 32 v70,2013-04-21 05:46:00,
2013-04-21 00:51:00,32.2,-1.5,30.42,SE,137,5.0,9.0,23,0.00,,,0.00,Weather View 32 v70,2013-04-21 05:51:00,
2013-04-21 00:56:00,32.2,-1.5,30.42,ESE,105,2.0,9.0,23,0.00,,,0.00,Weather View 32 v70,2013-04-21 05:56:00,
2013-04-21 01:01:00,32.0,-1.6,30.42,SE,133,4.0,9.0,23,0.00,,,0.00,Weather View 32 v70,2013-04-21 06:01:00,
2013-04-21 01:06:00,32.0,-1.6,30.42,ESE,115,0.0,9.0,23,0.00,,,0.00,Weather View 32 v70,2013-04-21 06:06:00,
2013-04-21 01:11:00,31.8,-1.8,30.42,East,86,3.0,9.0,23,0.00,,,0.00,Weather View 32 v70,2013-04-21 06:11:00,
2013-04-21 01:16:00,31.8,-1.8,30.42,ESE,104,3.0,9.0,23,0.00,,,0.00,Weather View 32 v70,2013-04-21 06:16:00,
2013-04-21 01:21:00,31.6,-1.9,30.42,ESE,113,5.0,9.0,23,0.00,,,0.00,Weather View 32 v70,2013-04-21 06:21:00,
2013-04-21 01:26:00,31.6,-1.9,30.42,ESE,117,4.0,9.0,23,0.00,,,0.00,Weather View 32 v70,2013-04-21 06:26:00,
2013-04-21 01:31:00,31.5,-2.1,30.42,SE,124,3.0,9.0,23,0.00,,,0.00,Weather View 32 v70,2013-04-21 06:31:00,
2013-04-21 01:36:00,31.8,-1.8,30.42,SE,131,6.0,8.0,23,0.00,,,0.00,Weather View 32 v70,2013-04-21 06:36:00,
2013-04-21 01:41:00,31.6,-1.9,30.42,ENE,76,0.0,8.0,23,0.00,,,0.00,Weather View 32 v70,2013-04-21 06:41:00,
2013-04-21 01:46:00,32.0,-1.6,30.42,East,85,3.0,8.0,23,0.00,,,0.00,Weather View 32 v70,2013-04-21 06:46:00,
2013-04-21 01:51:00,32.4,-1.3,30.42,SE,127,4.0,8.0,23,0.00,,,0.00,Weather View 32 v70,2013-04-21 06:51:00,
2013-04-21 01:56:00,32.0,-1.6,30.42,ENE,77,6.0,8.0,23,0.00,,,0.00,Weather View 32 v70,2013-04-21 06:56:00,
2013-04-21 02:01:00,31.8,-1.8,30.42,ESE,122,7.0,8.0,23,0.00,,,0.00,Weather View 32 v70,2013-04-21 07:01:00,
2013-04-21 02:06:00,32.0,-1.6,30.42,ESE,109,5.0,8.0,23,0.00,,,0.00,Weather View 32 v70,2013-04-21 07:06:00,
2013-04-21 02:11:00,31.6,-1.9,30.42,SE,124,3.0,8.0,23,0.00,,,0.00,Weather View 32 v70,2013-04-21 07:11:00,
2013-04-21 02:16:00,31.3,-2.3,30.42,SE,136,4.0,8.0,23,0.00,,,0.00,Weather View 32 v70,2013-04-21 07:16:00,
2013-04-21 02:21:00,31.5,-2.1,30.42,SE,133,4.0,8.0,23,0.00,,,0.00,Weather View 32 v70,2013-04-21 07:21:00,
2013-04-21 02:26:00,31.8,-1.8,30.42,SE,140,6.0,8.0,23,0.00,,,0.00,Weather View 32 v70,2013-04-21 07:26:00,
2013-04-21 02:31:00,31.6,-1.9,30.42,ESE,122,3.0,8.0,23,0.00,,,0.00,Weather View 32 v70,2013-04-21 07:31:00,
2013-04-21 02:36:00,32.0,-1.6,30.42,SE,125,4.0,8.0,23,0.00,,,0.00,Weather View 32 v70,2013-04-21 07:36:00,
2013-04-21 02:41:00,31.8,-1.8,30.42,East,89,6.0,8.0,23,0.00,,,0.00,Weather View 32 v70,2013-04-21 07:41:00,
2013-04-21 02:46:00,31.8,-1.8,30.42,SE,133,4.0,10.0,23,0.00,,,0.00,Weather View 32 v70,2013-04-21 07:46:00,
2013-04-21 02:51:00,31.6,-1.9,30.45,ESE,108,3.0,10.0,23,0.00,,,0.00,Weather View 32 v70,2013-04-21 07:51:00,
2013-04-21 02:56:00,31.6,-1.9,30.45,East,89,3.0,10.0,23,0.00,,,0.00,Weather View 32 v70,2013-04-21 07:56:00,
2013-04-21 03:01:00,31.1,-2.4,30.45,SE,124,3.0,10.0,23,0.00,,,0.00,Weather View 32 v70,2013-04-21 08:01:00,
2013-04-21 03:06:00,31.1,-2.4,30.45,SE,131,5.0,10.0,23,0.00,,,0.00,Weather View 32 v70,2013-04-21 08:06:00,
2013-04-21 03:11:00,31.3,-2.3,30.45,East,97,4.0,10.0,23,0.00,,,0.00,Weather View 32 v70,2013-04-21 08:11:00,
2013-04-21 03:16:00,31.3,-2.3,30.45,ESE,114,4.0,10.0,23,0.00,,,0.00,Weather View 32 v70,2013-04-21 08:16:00,
2013-04-21 03:21:00,31.8,-1.8,30.45,ESE,108,3.0,10.0,23,0.00,,,0.00,Weather View 32 v70,2013-04-21 08:21:00,
2013-04-21 03:26:00,31.8,-1.8,30.45,SE,132,3.0,10.0,23,0.00,,,0.00,Weather View 32 v70,2013-04-21 08:26:00,
2013-04-21 03:31:00,31.5,-2.1,30.45,SE,133,5.0,10.0,23,0.00,,,0.00,Weather View 32 v70,2013-04-21 08:31:00,
2013-04-21 03:36:00,31.6,-1.9,30.45,ESE,118,6.0,10.0,23,0.00,,,0.00,Weather View 32 v70,2013-04-21 08:36:00,
2013-04-21 03:41:00,31.8,-1.8,30.45,ESE,120,6.0,10.0,23,0.00,,,0.00,Weather View 32 v70,2013-04-21 08:41:00,
2013-04-21 03:46:00,32.0,-1.6,30.45,ESE,118,8.0,9.0,23,0.00,,,0.00,Weather View 32 v70,2013-04-21 08:46:00,
2013-04-21 03:51:00,31.8,-1.8,30.42,SE,127,4.0,10.0,23,0.00,,,0.00,Weather View 32 v70,2013-04-21 08:51:00,
2013-04-21 03:56:00,31.6,-1.9,30.42,SSE,164,7.0,11.0,23,0.00,,,0.00,Weather View 32 v70,2013-04-21 08:56:00,
2013-04-21 04:01:00,32.0,-1.6,30.42,ESE,121,5.0,11.0,23,0.00,,,0.00,Weather View 32 v70,2013-04-21 09:01:00,
2013-04-21 04:06:00,31.8,-1.8,30.42,ESE,119,4.0,11.0,23,0.00,,,0.00,Weather View 32 v70,2013-04-21 09:06:00,
2013-04-21 04:11:00,32.0,-1.6,30.42,ESE,105,4.0,11.0,23,0.00,,,0.00,Weather View 32 v70,2013-04-21 09:11:00,
2013-04-21 04:16:00,32.0,-1.6,30.42,ESE,122,4.0,11.0,23,0.00,,,0.00,Weather View 32 v70,2013-04-21 09:16:00,
2013-04-21 04:21:00,32.4,-1.3,30.42,East,100,5.0,11.0,23,0.00,,,0.00,Weather View 32 v70,2013-04-21 09:21:00,
2013-04-21 04:26:00,32.7,-1.0,30.42,SE,131,4.0,11.0,23,0.00,,,0.00,Weather View 32 v70,2013-04-21 09:26:00,
2013-04-21 04:31:00,32.7,-1.0,30.42,SE,136,0.0,11.0,23,0.00,,,0.00,Weather View 32 v70,2013-04-21 09:31:00,
2013-04-21 04:36:00,33.1,-0.7,30.45,SE,125,3.0,11.0,23,0.00,,,0.00,Weather View 32 v70,2013-04-21 09:36:00,
2013-04-21 04:41:00,33.4,-0.4,30.45,ESE,115,5.0,11.0,23,0.00,,,0.00,Weather View 32 v70,2013-04-21 09:41:00,
2013-04-21 04:46:00,33.4,-0.4,30.45,ESE,110,8.0,11.0,23,0.00,,,0.00,Weather View 32 v70,2013-04-21 09:46:00,
2013-04-21 04:51:00,33.6,-0.3,30.45,SE,133,3.0,11.0,23,0.00,,,0.00,Weather View 32 v70,2013-04-21 09:51:00,
2013-04-21 04:56:00,33.8,-1.1,30.45,ESE,122,5.0,11.0,22,0.00,,,0.00,Weather View 32 v70,2013-04-21 09:56:00,
2013-04-21 05:01:00,33.8,-1.1,30.45,East,93,4.0,11.0,22,0.00,,,0.00,Weather View 32 v70,2013-04-21 10:01:00,
2013-04-21 05:06:00,33.6,-0.3,30.45,ESE,114,4.0,11.0,23,0.00,,,0.00,Weather View 32 v70,2013-04-21 10:06:00,
2013-04-21 05:11:00,34.0,-0.9,30.45,ESE,102,5.0,11.0,22,0.00,,,0.00,Weather View 32 v70,2013-04-21 10:11:00,
2013-04-21 05:16:00,34.0,-0.9,30.45,SE,124,7.0,11.0,22,0.00,,,0.00,Weather View 32 v70,2013-04-21 10:16:00,
2013-04-21 05:21:00,33.8,-1.1,30.45,SE,131,4.0,11.0,22,0.00,,,0.00,Weather View 32 v70,2013-04-21 10:21:00,
2013-04-21 05:26:00,33.8,-1.1,30.45,ESE,115,6.0,12.0,22,0.00,,,0.00,Weather View 32 v70,2013-04-21 10:26:00,
2013-04-21 05:31:00,33.8,-1.1,30.45,SE,146,4.0,12.0,22,0.00,,,0.00,Weather View 32 v70,2013-04-21 10:31:00,
2013-04-21 05:36:00,33.8,-1.1,30.45,East,100,12.0,12.0,22,0.00,,,0.00,Weather View 32 v70,2013-04-21 10:36:00,
2013-04-21 05:41:00,34.0,-0.9,30.45,SE,128,4.0,12.0,22,0.00,,,0.00,Weather View 32 v70,2013-04-21 10:41:00,
2013-04-21 05:46:00,33.6,-0.3,30.45,ESE,104,6.0,12.0,23,0.00,,,0.00,Weather View 32 v70,2013-04-21 10:46:00,
2013-04-21 05:51:00,33.8,-1.1,30.45,SE,133,6.0,12.0,22,0.00,,,0.00,Weather View 32 v70,2013-04-21 10:51:00,
2013-04-21 05:56:00,33.8,-1.1,30.45,ESE,102,5.0,12.0,22,0.00,,,0.00,Weather View 32 v70,2013-04-21 10:56:00,
2013-04-21 06:01:00,34.0,-0.9,30.45,SE,126,3.0,12.0,22,0.00,,,0.00,Weather View 32 v70,2013-04-21 11:01:00,
2013-04-21 06:06:00,33.8,-1.1,30.45,SE,138,3.0,12.0,22,0.00,,,0.00,Weather View 32 v70,2013-04-21 11:06:00,
2013-04-21 06:11:00,33.8,-1.1,30.45,ENE,77,8.0,13.0,22,0.00,,,0.00,Weather View 32 v70,2013-04-21 11:11:00,
2013-04-21 06:16:00,33.8,-1.1,30.45,SSE,156,5.0,13.0,22,0.00,,,0.00,Weather View 32 v70,2013-04-21 11:16:00,
2013-04-21 06:21:00,33.8,-1.1,30.45,East,100,5.0,13.0,22,0.00,,,0.00,Weather View 32 v70,2013-04-21 11:21:00,
2013-04-21 06:26:00,34.2,-0.8,30.45,SE,126,10.0,13.0,22,0.00,,,0.00,Weather View 32 v70,2013-04-21 11:26:00,
2013-04-21 06:31:00,34.2,-0.8,30.45,ESE,118,9.0,13.0,22,0.00,,,0.00,Weather View 32 v70,2013-04-21 11:31:00,
2013-04-21 06:36:00,34.2,-0.8,30.45,ESE,104,5.0,13.0,22,0.00,,,0.00,Weather View 32 v70,2013-04-21 11:36:00,
2013-04-21 06:41:00,34.2,-0.8,30.45,ENE,70,4.0,13.0,22,0.00,,,0.00,Weather View 32 v70,2013-04-21 11:41:00,
2013-04-21 06:46:00,34.3,-0.6,30.45,East,95,6.0,13.0,22,0.00,,,0.00,Weather View 32 v70,2013-04-21 11:46:00,
2013-04-21 06:51:00,34.5,-0.4,30.45,SE,124,8.0,14.0,22,0.00,,,0.00,Weather View 32 v70,2013-04-21 11:51:00,
2013-04-21 06:56:00,34.7,-0.3,30.45,East,81,4.0,14.0,22,0.00,,,0.00,Weather View 32 v70,2013-04-21 11:56:00,
2013-04-21 07:01:00,34.9,-0.1,30.45,SE,129,8.0,15.0,22,0.00,,,0.00,Weather View 32 v70,2013-04-21 12:01:00,
2013-04-21 07:06:00,34.9,-0.1,30.48,SE,126,5.0,15.0,22,0.00,,,0.00,Weather View 32 v70,2013-04-21 12:06:00,
2013-04-21 07:11:00,35.1,0.0,30.48,SE,141,5.0,15.0,22,0.00,,,0.00,Weather View 32 v70,2013-04-21 12:11:00,
2013-04-21 07:16:00,35.1,0.0,30.48,ESE,117,6.0,15.0,22,0.00,,,0.00,Weather View 32 v70,2013-04-21 12:16:00,
2013-04-21 07:21:00,35.2,0.2,30.48,SE,132,10.0,15.0,22,0.00,,,0.00,Weather View 32 v70,2013-04-21 12:21:00,
2013-04-21 07:26:00,35.4,0.3,30.48,East,94,5.0,15.0,22,0.00,,,0.00,Weather View 32 v70,2013-04-21 12:26:00,
2013-04-21 07:31:00,35.4,0.3,30.48,SE,129,6.0,15.0,22,0.00,,,0.00,Weather View 32 v70,2013-04-21 12:31:00,
2013-04-21 07:36:00,36.0,0.8,30.48,East,97,5.0,15.0,22,0.00,,,0.00,Weather View 32 v70,2013-04-21 12:36:00,
2013-04-21 07:41:00,36.3,1.1,30.48,East,87,5.0,15.0,22,0.00,,,0.00,Weather View 32 v70,2013-04-21 12:41:00,
2013-04-21 07:46:00,36.7,1.4,30.48,ESE,116,6.0,15.0,22,0.00,,,0.00,Weather View 32 v70,2013-04-21 12:46:00,
2013-04-21 07:51:00,36.9,1.5,30.48,ESE,106,8.0,15.0,22,0.00,,,0.00,Weather View 32 v70,2013-04-21 12:51:00,
2013-04-21 07:56:00,37.2,1.8,30.48,SSE,155,3.0,15.0,22,0.00,,,0.00,Weather View 32 v70,2013-04-21 12:56:00,
2013-04-21 08:01:00,37.6,1.1,30.48,East,84,5.0,14.0,21,0.00,,,0.00,Weather View 32 v70,2013-04-21 13:01:00,
2013-04-21 08:06:00,37.9,1.4,30.51,ESE,117,8.0,14.0,21,0.00,,,0.00,Weather View 32 v70,2013-04-21 13:06:00,
2013-04-21 08:11:00,38.3,1.7,30.51,South,177,4.0,14.0,21,0.00,,,0.00,Weather View 32 v70,2013-04-21 13:11:00,
2013-04-21 08:16:00,38.3,1.7,30.51,SSE,162,4.0,14.0,21,0.00,,,0.00,Weather View 32 v70,2013-04-21 13:16:00,
2013-04-21 08:21:00,38.8,2.2,30.51,SE,139,0.0,14.0,21,0.00,,,0.00,Weather View 32 v70,2013-04-21 13:21:00,
2013-04-21 08:26:00,39.0,2.3,30.51,ESE,119,6.0,14.0,21,0.00,,,0.00,Weather View 32 v70,2013-04-21 13:26:00,
2013-04-21 08:31:00,38.8,2.2,30.51,SSE,161,6.0,14.0,21,0.00,,,0.00,Weather View 32 v70,2013-04-21 13:31:00,
2013-04-21 08:36:00,39.0,2.3,30.51,ESE,103,11.0,14.0,21,0.00,,,0.00,Weather View 32 v70,2013-04-21 13:36:00,
2013-04-21 08:41:00,39.4,2.6,30.51,ESE,116,3.0,14.0,21,0.00,,,0.00,Weather View 32 v70,2013-04-21 13:41:00,
2013-04-21 08:46:00,40.1,3.3,30.51,SE,127,4.0,14.0,21,0.00,,,0.00,Weather View 32 v70,2013-04-21 13:46:00,
2013-04-21 08:51:00,40.5,3.6,30.51,SE,130,6.0,13.0,21,0.00,,,0.00,Weather View 32 v70,2013-04-21 13:51:00,
2013-04-21 08:56:00,39.6,2.8,30.51,South,181,9.0,13.0,21,0.00,,,0.00,Weather View 32 v70,2013-04-21 13:56:00,
2013-04-21 09:01:00,40.3,3.4,30.51,SE,129,5.0,13.0,21,0.00,,,0.00,Weather View 32 v70,2013-04-21 14:01:00,
2013-04-21 09:06:00,42.1,4.9,30.51,ESE,119,6.0,13.0,21,0.00,,,0.00,Weather View 32 v70,2013-04-21 14:06:00,
2013-04-21 09:11:00,44.6,5.9,30.51,SE,126,4.0,13.0,20,0.00,,,0.00,Weather View 32 v70,2013-04-21 14:11:00,
2013-04-21 09:16:00,45.1,6.4,30.51,ESE,109,3.0,13.0,20,0.00,,,0.00,Weather View 32 v70,2013-04-21 14:16:00,
2013-04-21 09:21:00,46.2,7.3,30.51,SSE,160,9.0,13.0,20,0.00,,,0.00,Weather View 32 v70,2013-04-21 14:21:00,
2013-04-21 09:26:00,46.2,7.3,30.51,SE,130,5.0,13.0,20,0.00,,,0.00,Weather View 32 v70,2013-04-21 14:26:00,
2013-04-21 09:31:00,47.7,7.4,30.51,ESE,116,4.0,13.0,19,0.00,,,0.00,Weather View 32 v70,2013-04-21 14:31:00,
2013-04-21 09:36:00,47.8,7.5,30.51,ESE,104,8.0,13.0,19,0.00,,,0.00,Weather View 32 v70,2013-04-21 14:36:00,
2013-04-21 09:41:00,48.6,8.1,30.51,South,169,5.0,13.0,19,0.00,,,0.00,Weather View 32 v70,2013-04-21 14:41:00,
2013-04-21 09:46:00,46.6,6.5,30.51,SE,127,6.0,14.0,19,0.00,,,0.00,Weather View 32 v70,2013-04-21 14:46:00,
2013-04-21 09:51:00,46.0,7.1,30.51,SE,140,11.0,14.0,20,0.00,,,0.00,Weather View 32 v70,2013-04-21 14:51:00,
2013-04-21 09:56:00,46.2,7.3,30.51,South,177,9.0,15.0,20,0.00,,,0.00,Weather View 32 v70,2013-04-21 14:56:00,
2013-04-21 10:01:00,48.0,7.7,30.51,SE,125,6.0,15.0,19,0.00,,,0.00,Weather View 32 v70,2013-04-21 15:01:00,
2013-04-21 10:06:00,47.3,7.1,30.51,ESE,105,15.0,15.0,19,0.00,,,0.00,Weather View 32 v70,2013-04-21 15:06:00,
2013-04-21 10:11:00,49.8,9.1,30.51,East,95,9.0,17.0,19,0.00,,,0.00,Weather View 32 v70,2013-04-21 15:11:00,
2013-04-21 10:16:00,48.7,8.3,30.51,East,97,8.0,17.0,19,0.00,,,0.00,Weather View 32 v70,2013-04-21 15:16:00,
2013-04-21 10:21:00,49.3,8.7,30.48,East,101,6.0,17.0,19,0.00,,,0.00,Weather View 32 v70,2013-04-21 15:21:00,
2013-04-21 10:26:00,50.4,9.6,30.48,SE,126,15.0,17.0,19,0.00,,,0.00,Weather View 32 v70,2013-04-21 15:26:00,
2013-04-21 10:31:00,48.0,7.7,30.48,East,84,9.0,17.0,19,0.00,,,0.00,Weather View 32 v70,2013-04-21 15:31:00,
2013-04-21 10:36:00,49.3,8.7,30.48,ESE,102,4.0,17.0,19,0.00,,,0.00,Weather View 32 v70,2013-04-21 15:36:00,
2013-04-21 10:41:00,50.0,9.3,30.48,SE,144,10.0,17.0,19,0.00,,,0.00,Weather View 32 v70,2013-04-21 15:41:00,
2013-04-21 10:46:00,49.8,9.1,30.48,ESE,123,5.0,17.0,19,0.00,,,0.00,Weather View 32 v70,2013-04-21 15:46:00,
2013-04-21 10:51:00,49.8,9.1,30.48,ESE,110,16.0,17.0,19,0.00,,,0.00,Weather View 32 v70,2013-04-21 15:51:00,
2013-04-21 10:56:00,49.8,9.1,30.48,SE,132,8.0,17.0,19,0.00,,,0.00,Weather View 32 v70,2013-04-21 15:56:00,
2013-04-21 11:01:00,50.2,9.4,30.48,ESE,110,6.0,17.0,19,0.00,,,0.00,Weather View 32 v70,2013-04-21 16:01:00,
2013-04-21 11:06:00,50.4,9.6,30.48,ESE,123,19.0,19.0,19,0.00,,,0.00,Weather View 32 v70,2013-04-21 16:06:00,
2013-04-21 11:11:00,50.4,9.6,30.48,East,86,6.0,19.0,19,0.00,,,0.00,Weather View 32 v70,2013-04-21 16:11:00,
2013-04-21 11:16:00,51.8,9.6,30.48,SSE,165,8.0,19.0,18,0.00,,,0.00,Weather View 32 v70,2013-04-21 16:16:00,
2013-04-21 11:22:00,52.3,10.0,30.48,South,173,9.0,19.0,18,0.00,,,0.00,Weather View 32 v70,2013-04-21 16:22:00,
2013-04-21 11:27:00,50.5,9.7,30.48,East,93,8.0,19.0,19,0.00,,,0.00,Weather View 32 v70,2013-04-21 16:27:00,
2013-04-21 11:32:00,50.9,10.0,30.48,SSE,168,8.0,19.0,19,0.00,,,0.00,Weather View 32 v70,2013-04-21 16:32:00,
2013-04-21 11:37:00,52.0,9.7,30.45,ESE,120,3.0,19.0,18,0.00,,,0.00,Weather View 32 v70,2013-04-21 16:37:00,
2013-04-21 11:42:00,51.8,9.6,30.45,ESE,122,6.0,19.0,18,0.00,,,0.00,Weather View 32 v70,2013-04-21 16:42:00,
2013-04-21 11:47:00,51.1,10.2,30.45,SE,139,11.0,19.0,19,0.00,,,0.00,Weather View 32 v70,2013-04-21 16:47:00,
2013-04-21 11:52:00,50.7,9.9,30.45,South,188,9.0,19.0,19,0.00,,,0.00,Weather View 32 v70,2013-04-21 16:52:00,
2013-04-21 11:57:00,49.5,8.8,30.45,SE,140,8.0,19.0,19,0.00,,,0.00,Weather View 32 v70,2013-04-21 16:57:00,
2013-04-21 12:02:00,49.6,9.0,30.45,ESE,123,4.0,19.0,19,0.00,,,0.00,Weather View 32 v70,2013-04-21 17:02:00,
2013-04-21 12:07:00,50.0,9.3,30.45,SE,132,8.0,17.0,19,0.00,,,0.00,Weather View 32 v70,2013-04-21 17:07:00,
2013-04-21 12:12:00,49.5,8.8,30.45,ESE,114,4.0,17.0,19,0.00,,,0.00,Weather View 32 v70,2013-04-21 17:12:00,
2013-04-21 12:17:00,49.8,9.1,30.45,ESE,116,8.0,17.0,19,0.00,,,0.00,Weather View 32 v70,2013-04-21 17:17:00,
2013-04-21 12:22:00,50.2,9.4,30.45,ESE,106,9.0,17.0,19,0.00,,,0.00,Weather View 32 v70,2013-04-21 17:22:00,
2013-04-21 12:27:00,49.8,9.1,30.45,SE,143,12.0,17.0,19,0.00,,,0.00,Weather View 32 v70,2013-04-21 17:27:00,
2013-04-21 12:32:00,50.0,9.3,30.45,SSE,168,12.0,17.0,19,0.00,,,0.00,Weather View 32 v70,2013-04-21 17:32:00,
2013-04-21 12:37:00,50.4,9.6,30.42,ESE,123,10.0,17.0,19,0.00,,,0.00,Weather View 32 v70,2013-04-21 17:37:00,
2013-04-21 12:42:00,50.9,10.0,30.42,ESE,111,10.0,17.0,19,0.00,,,0.00,Weather View 32 v70,2013-04-21 17:42:00,
2013-04-21 12:47:00,50.2,9.4,30.42,ESE,115,14.0,17.0,19,0.00,,,0.00,Weather View 32 v70,2013-04-21 17:47:00,
2013-04-21 12:52:00,51.6,10.6,30.42,SE,141,11.0,17.0,19,0.00,,,0.00,Weather View 32 v70,2013-04-21 17:52:00,
2013-04-21 12:57:00,51.6,10.6,30.42,SSE,164,13.0,18.0,19,0.00,,,0.00,Weather View 32 v70,2013-04-21 17:57:00,
2013-04-21 13:02:00,52.0,9.7,30.42,ESE,113,6.0,18.0,18,0.00,,,0.00,Weather View 32 v70,2013-04-21 18:02:00,
2013-04-21 13:07:00,53.2,10.8,30.42,SE,131,6.0,18.0,18,0.00,,,0.00,Weather View 32 v70,2013-04-21 18:07:00,
2013-04-21 13:12:00,53.2,10.8,30.42,ESE,113,8.0,18.0,18,0.00,,,0.00,Weather View 32 v70,2013-04-21 18:12:00,
2013-04-21 13:17:00,53.8,11.2,30.42,ESE,120,4.0,18.0,18,0.00,,,0.00,Weather View 32 v70,2013-04-21 18:17:00,
2013-04-21 13:22:00,54.5,11.8,30.42,SE,141,11.0,18.0,18,0.00,,,0.00,Weather View 32 v70,2013-04-21 18:22:00,
2013-04-21 13:27:00,54.0,11.3,30.42,SE,134,11.0,18.0,18,0.00,,,0.00,Weather View 32 v70,2013-04-21 18:27:00,
2013-04-21 13:32:00,53.8,11.2,30.42,SSE,148,13.0,18.0,18,0.00,,,0.00,Weather View 32 v70,2013-04-21 18:32:00,
2013-04-21 13:37:00,54.3,11.6,30.39,ESE,123,10.0,18.0,18,0.00,,,0.00,Weather View 32 v70,2013-04-21 18:37:00,
2013-04-21 13:42:00,55.4,11.2,30.39,South,177,5.0,18.0,17,0.00,,,0.00,Weather View 32 v70,2013-04-21 18:42:00,
2013-04-21 13:47:00,54.3,11.6,30.39,SE,133,13.0,18.0,18,0.00,,,0.00,Weather View 32 v70,2013-04-21 18:47:00,
2013-04-21 13:52:00,54.3,11.6,30.39,ESE,108,6.0,18.0,18,0.00,,,0.00,Weather View 32 v70,2013-04-21 18:52:00,
2013-04-21 13:57:00,55.4,11.2,30.39,ESE,113,8.0,17.0,17,0.00,,,0.00,Weather View 32 v70,2013-04-21 18:57:00,
2013-04-21 14:02:00,54.3,11.6,30.39,SSE,160,8.0,17.0,18,0.00,,,0.00,Weather View 32 v70,2013-04-21 19:02:00,
2013-04-21 14:07:00,56.8,12.4,30.39,South,179,8.0,17.0,17,0.00,,,0.00,Weather View 32 v70,2013-04-21 19:07:00,
2013-04-21 14:12:00,56.1,11.8,30.39,SE,124,11.0,17.0,17,0.00,,,0.00,Weather View 32 v70,2013-04-21 19:12:00,
2013-04-21 14:17:00,56.8,12.4,30.39,ESE,108,8.0,17.0,17,0.00,,,0.00,Weather View 32 v70,2013-04-21 19:17:00,
2013-04-21 14:22:00,56.1,11.8,30.39,SE,144,11.0,17.0,17,0.00,,,0.00,Weather View 32 v70,2013-04-21 19:22:00,
2013-04-21 14:27:00,55.2,12.4,30.39,ESE,109,12.0,17.0,18,0.00,,,0.00,Weather View 32 v70,2013-04-21 19:27:00,
2013-04-21 14:32:00,56.8,12.4,30.39,South,182,8.0,17.0,17,0.00,,,0.00,Weather View 32 v70,2013-04-21 19:32:00,
2013-04-21 14:37:00,59.0,14.2,30.39,SE,139,4.0,17.0,17,0.00,,,0.00,Weather View 32 v70,2013-04-21 19:37:00,
2013-04-21 14:42:00,59.5,14.6,30.39,ESE,120,11.0,17.0,17,0.00,,,0.00,Weather View 32 v70,2013-04-21 19:42:00,
2013-04-21 14:47:00,58.1,13.4,30.39,SE,130,5.0,17.0,17,0.00,,,0.00,Weather View 32 v70,2013-04-21 19:47:00,
2013-04-21 14:52:00,59.0,14.2,30.36,SE,145,17.0,18.0,17,0.00,,,0.00,Weather View 32 v70,2013-04-21 19:52:00,
2013-04-21 14:57:00,57.9,13.3,30.36,East,93,9.0,18.0,17,0.00,,,0.00,Weather View 32 v70,2013-04-21 19:57:00,
2013-04-21 15:02:00,58.1,13.4,30.36,East,101,12.0,18.0,17,0.00,,,0.00,Weather View 32 v70,2013-04-21 20:02:00,
2013-04-21 15:07:00,57.7,13.1,30.36,SSE,153,11.0,18.0,17,0.00,,,0.00,Weather View 32 v70,2013-04-21 20:07:00,
2013-04-21 15:12:00,58.8,14.0,30.36,SSW,211,8.0,18.0,17,0.00,,,0.00,Weather View 32 v70,2013-04-21 20:12:00,
2013-04-21 15:17:00,57.9,13.3,30.36,SE,137,9.0,18.0,17,0.00,,,0.00,Weather View 32 v70,2013-04-21 20:17:00,
2013-04-21 15:22:00,58.8,14.0,30.36,SSW,197,6.0,18.0,17,0.00,,,0.00,Weather View 32 v70,2013-04-21 20:22:00,
2013-04-21 15:27:00,59.2,14.3,30.36,East,93,6.0,18.0,17,0.00,,,0.00,Weather View 32 v70,2013-04-21 20:27:00,
2013-04-21 15:32:00,59.0,14.2,30.36,ESE,120,4.0,18.0,17,0.00,,,0.00,Weather View 32 v70,2013-04-21 20:32:00,
2013-04-21 15:37:00,59.9,14.9,30.36,South,176,5.0,18.0,17,0.00,,,0.00,Weather View 32 v70,2013-04-21 20:37:00,
2013-04-21 15:42:00,57.9,13.3,30.36,SE,144,6.0,18.0,17,0.00,,,0.00,Weather View 32 v70,2013-04-21 20:42:00,
2013-04-21 15:47:00,58.6,13.9,30.36,East,90,11.0,18.0,17,0.00,,,0.00,Weather View 32 v70,2013-04-21 20:47:00,
2013-04-21 15:52:00,59.0,14.2,30.36,ESE,104,8.0,18.0,17,0.00,,,0.00,Weather View 32 v70,2013-04-21 20:52:00,
2013-04-21 15:57:00,59.2,14.3,30.36,SE,133,6.0,17.0,17,0.00,,,0.00,Weather View 32 v70,2013-04-21 20:57:00,
2013-04-21 16:02:00,59.2,14.3,30.36,SE,144,6.0,17.0,17,0.00,,,0.00,Weather View 32 v70,2013-04-21 21:02:00,
2013-04-21 16:07:00,59.7,14.7,30.33,SE,133,9.0,17.0,17,0.00,,,0.00,Weather View 32 v70,2013-04-21 21:07:00,
2013-04-21 16:12:00,59.7,14.7,30.33,ESE,112,9.0,17.0,17,0.00,,,0.00,Weather View 32 v70,2013-04-21 21:12:00,
2013-04-21 16:17:00,59.5,14.6,30.33,ESE,114,5.0,17.0,17,0.00,,,0.00,Weather View 32 v70,2013-04-21 21:17:00,
2013-04-21 16:22:00,59.0,14.2,30.33,ENE,74,13.0,17.0,17,0.00,,,0.00,Weather View 32 v70,2013-04-21 21:22:00,
2013-04-21 16:27:00,60.4,15.3,30.33,ESE,121,10.0,17.0,17,0.00,,,0.00,Weather View 32 v70,2013-04-21 21:27:00,
2013-04-21 16:32:00,60.8,14.2,30.33,SSE,148,6.0,17.0,16,0.00,,,0.00,Weather View 32 v70,2013-04-21 21:32:00,
2013-04-21 16:37:00,59.2,14.3,30.33,SE,143,3.0,17.0,17,0.00,,,0.00,Weather View 32 v70,2013-04-21 21:37:00,
2013-04-21 16:42:00,57.9,13.3,30.33,SE,135,8.0,17.0,17,0.00,,,0.00,Weather View 32 v70,2013-04-21 21:42:00,
2013-04-21 16:47:00,59.9,14.9,30.33,South,185,6.0,16.0,17,0.00,,,0.00,Weather View 32 v70,2013-04-21 21:47:00,
2013-04-21 16:52:00,60.1,15.0,30.33,South,187,11.0,16.0,17,0.00,,,0.00,Weather View 32 v70,2013-04-21 21:52:00,
2013-04-21 16:57:00,59.9,14.9,30.33,SSE,155,10.0,16.0,17,0.00,,,0.00,Weather View 32 v70,2013-04-21 21:57:00,
2013-04-21 17:02:00,59.2,14.3,30.33,East,101,9.0,16.0,17,0.00,,,0.00,Weather View 32 v70,2013-04-21 22:02:00,
2013-04-21 17:07:00,59.7,14.7,30.33,SE,146,6.0,16.0,17,0.00,,,0.00,Weather View 32 v70,2013-04-21 22:07:00,
2013-04-21 17:13:00,59.0,14.2,30.33,SE,145,11.0,17.0,17,0.00,,,0.00,Weather View 32 v70,2013-04-21 22:13:00,
2013-04-21 17:18:00,58.5,13.7,30.33,SSE,166,13.0,17.0,17,0.00,,,0.00,Weather View 32 v70,2013-04-21 22:18:00,
2013-04-21 17:23:00,59.0,14.2,30.33,SSW,193,8.0,17.0,17,0.00,,,0.00,Weather View 32 v70,2013-04-21 22:23:00,
2013-04-21 17:28:00,58.8,14.0,30.33,SE,136,15.0,17.0,17,0.00,,,0.00,Weather View 32 v70,2013-04-21 22:28:00,
2013-04-21 17:33:00,58.6,13.9,30.33,SSE,164,8.0,17.0,17,0.00,,,0.00,Weather View 32 v70,2013-04-21 22:33:00,
2013-04-21 17:38:00,58.6,13.9,30.33,ESE,102,9.0,17.0,17,0.00,,,0.00,Weather View 32 v70,2013-04-21 22:38:00,
2013-04-21 17:43:00,58.3,13.6,30.33,SE,142,6.0,17.0,17,0.00,,,0.00,Weather View 32 v70,2013-04-21 22:43:00,
2013-04-21 17:48:00,58.1,13.4,30.33,SSE,158,15.0,17.0,17,0.00,,,0.00,Weather View 32 v70,2013-04-21 22:48:00,
2013-04-21 17:53:00,57.9,13.3,30.33,ESE,117,6.0,17.0,17,0.00,,,0.00,Weather View 32 v70,2013-04-21 22:53:00,
2013-04-21 17:58:00,57.9,13.3,30.33,ESE,114,6.0,17.0,17,0.00,,,0.00,Weather View 32 v70,2013-04-21 22:58:00,
2013-04-21 18:03:00,57.9,13.3,30.33,SSE,157,10.0,17.0,17,0.00,,,0.00,Weather View 32 v70,2013-04-21 23:03:00,
2013-04-21 18:08:00,58.5,13.7,30.33,South,169,6.0,17.0,17,0.00,,,0.00,Weather View 32 v70,2013-04-21 23:08:00,
2013-04-21 18:13:00,56.8,12.4,30.33,SSE,163,11.0,15.0,17,0.00,,,0.00,Weather View 32 v70,2013-04-21 23:13:00,
2013-04-21 18:18:00,56.8,12.4,30.33,SSE,153,8.0,15.0,17,0.00,,,0.00,Weather View 32 v70,2013-04-21 23:18:00,
2013-04-21 18:23:00,56.7,12.3,30.33,South,176,8.0,15.0,17,0.00,,,0.00,Weather View 32 v70,2013-04-21 23:23:00,
2013-04-21 18:28:00,55.9,11.7,30.33,ESE,114,13.0,15.0,17,0.00,,,0.00,Weather View 32 v70,2013-04-21 23:28:00,
2013-04-21 18:33:00,53.8,11.2,30.33,SW,221,3.0,15.0,18,0.00,,,0.00,Weather View 32 v70,2013-04-21 23:33:00,
2013-04-21 18:38:00,52.9,10.5,30.33,ESE,109,6.0,15.0,18,0.00,,,0.00,Weather View 32 v70,2013-04-21 23:38:00,
2013-04-21 18:43:00,52.3,10.0,30.33,South,179,8.0,17.0,18,0.00,,,0.00,Weather View 32 v70,2013-04-21 23:43:00,
2013-04-21 18:48:00,51.8,9.6,30.33,ESE,115,5.0,17.0,18,0.00,,,0.00,Weather View 32 v70,2013-04-21 23:48:00,
2013-04-21 18:53:00,51.4,10.5,30.30,SE,141,11.0,17.0,19,0.00,,,0.00,Weather View 32 v70,2013-04-21 23:53:00,
2013-04-21 18:58:00,51.1,10.2,30.30,SSE,154,6.0,17.0,19,0.00,,,0.00,Weather View 32 v70,2013-04-21 23:58:00,
2013-04-21 19:03:00,50.9,10.0,30.30,SE,125,6.0,17.0,19,0.00,,,0.00,Weather View 32 v70,2013-04-22 00:03:00,
2013-04-21 19:08:00,50.2,9.4,30.30,ESE,122,6.0,17.0,19,0.00,,,0.00,Weather View 32 v70,2013-04-22 00:08:00,
2013-04-21 19:13:00,49.6,9.0,30.30,NNE,13,2.0,17.0,19,0.00,,,0.00,Weather View 32 v70,2013-04-22 00:13:00,
2013-04-21 19:18:00,49.3,8.7,30.30,ESE,109,8.0,17.0,19,0.00,,,0.00,Weather View 32 v70,2013-04-22 00:18:00,
2013-04-21 19:22:00,49.1,8.6,30.30,SSE,151,6.0,17.0,19,0.00,,,0.00,Weather View 32 v70,2013-04-22 00:22:00,
2013-04-21 19:27:00,48.6,8.1,30.30,South,172,6.0,17.0,19,0.00,,,0.00,Weather View 32 v70,2013-04-22 00:27:00,
2013-04-21 19:32:00,48.2,7.8,30.30,SSE,162,0.0,17.0,19,0.00,,,0.00,Weather View 32 v70,2013-04-22 00:32:00,
2013-04-21 19:37:00,47.8,7.5,30.30,SE,136,4.0,17.0,19,0.00,,,0.00,Weather View 32 v70,2013-04-22 00:37:00,
2013-04-21 19:42:00,47.5,7.2,30.30,South,185,4.0,15.0,19,0.00,,,0.00,Weather View 32 v70,2013-04-22 00:42:00,
2013-04-21 19:47:00,47.5,7.2,30.30,SSE,153,11.0,15.0,19,0.00,,,0.00,Weather View 32 v70,2013-04-22 00:47:00,
2013-04-21 19:52:00,47.3,7.1,30.30,SSE,166,4.0,15.0,19,0.00,,,0.00,Weather View 32 v70,2013-04-22 00:52:00,
2013-04-21 19:58:00,46.8,6.6,30.30,SSE,161,4.0,15.0,19,0.00,,,0.00,Weather View 32 v70,2013-04-22 00:58:00,
2013-04-21 20:03:00,46.8,6.6,30.30,SSE,152,8.0,13.0,19,0.00,,,0.00,Weather View 32 v70,2013-04-22 01:03:00,
2013-04-21 20:07:00,46.2,7.3,30.33,SE,140,4.0,13.0,20,0.00,,,0.00,Weather View 32 v70,2013-04-22 01:07:00,
2013-04-21 20:13:00,46.6,6.5,30.33,SE,126,5.0,13.0,19,0.00,,,0.00,Weather View 32 v70,2013-04-22 01:13:00,
2013-04-21 20:17:00,46.4,6.3,30.33,SE,126,8.0,13.0,19,0.00,,,0.00,Weather View 32 v70,2013-04-22 01:17:00,
2013-04-21 20:22:00,46.2,7.3,30.33,SE,130,9.0,13.0,20,0.00,,,0.00,Weather View 32 v70,2013-04-22 01:22:00,
2013-04-21 20:27:00,46.2,7.3,30.33,SE,133,4.0,13.0,20,0.00,,,0.00,Weather View 32 v70,2013-04-22 01:27:00,
2013-04-21 20:32:00,46.4,6.3,30.33,SE,137,8.0,13.0,19,0.00,,,0.00,Weather View 32 v70,2013-04-22 01:32:00,
2013-04-21 20:37:00,46.8,6.6,30.33,ESE,123,5.0,13.0,19,0.00,,,0.00,Weather View 32 v70,2013-04-22 01:37:00,
2013-04-21 20:42:00,46.8,6.6,30.33,SE,127,12.0,13.0,19,0.00,,,0.00,Weather View 32 v70,2013-04-22 01:42:00,
2013-04-21 20:47:00,46.9,6.8,30.33,South,183,6.0,13.0,19,0.00,,,0.00,Weather View 32 v70,2013-04-22 01:47:00,
2013-04-21 20:53:00,46.9,6.8,30.33,SE,140,4.0,13.0,19,0.00,,,0.00,Weather View 32 v70,2013-04-22 01:53:00,
2013-04-21 20:57:00,46.9,6.8,30.33,SE,134,6.0,13.0,19,0.00,,,0.00,Weather View 32 v70,2013-04-22 01:57:00,
2013-04-21 21:03:00,46.8,6.6,30.33,ESE,111,6.0,13.0,19,0.00,,,0.00,Weather View 32 v70,2013-04-22 02:03:00,
2013-04-21 21:07:00,46.9,6.8,30.33,SSE,162,8.0,13.0,19,0.00,,,0.00,Weather View 32 v70,2013-04-22 02:07:00,
2013-04-21 21:12:00,47.1,6.9,30.33,ESE,119,4.0,13.0,19,0.00,,,0.00,Weather View 32 v70,2013-04-22 02:12:00,
2013-04-21 21:18:00,46.9,6.8,30.33,SE,129,4.0,17.0,19,0.00,,,0.00,Weather View 32 v70,2013-04-22 02:18:00,
2013-04-21 21:22:00,46.8,6.6,30.33,SW,219,9.0,17.0,19,0.00,,,0.00,Weather View 32 v70,2013-04-22 02:22:00,
2013-04-21 21:27:00,46.8,6.6,30.33,SE,142,10.0,17.0,19,0.00,,,0.00,Weather View 32 v70,2013-04-22 02:27:00,
2013-04-21 21:32:00,46.6,6.5,30.33,ESE,122,6.0,17.0,19,0.00,,,0.00,Weather View 32 v70,2013-04-22 02:32:00,
2013-04-21 21:38:00,46.2,7.3,30.33,ESE,120,6.0,17.0,20,0.00,,,0.00,Weather View 32 v70,2013-04-22 02:38:00,
2013-04-21 21:43:00,46.2,7.3,30.33,ESE,122,8.0,17.0,20,0.00,,,0.00,Weather View 32 v70,2013-04-22 02:43:00,
2013-04-21 21:48:00,46.0,7.1,30.33,SSE,157,9.0,17.0,20,0.00,,,0.00,Weather View 32 v70,2013-04-22 02:48:00,
2013-04-21 21:52:00,45.9,7.0,30.33,SE,138,5.0,17.0,20,0.00,,,0.00,Weather View 32 v70,2013-04-22 02:52:00,
2013-04-21 21:58:00,45.5,6.7,30.33,ESE,122,8.0,17.0,20,0.00,,,0.00,Weather View 32 v70,2013-04-22 02:58:00,
2013-04-21 22:02:00,45.3,6.5,30.33,ESE,111,8.0,17.0,20,0.00,,,0.00,Weather View 32 v70,2013-04-22 03:02:00,
2013-04-21 22:08:00,45.1,6.4,30.33,ESE,108,4.0,17.0,20,0.00,,,0.00,Weather View 32 v70,2013-04-22 03:08:00,
2013-04-21 22:12:00,45.0,6.2,30.33,SE,125,6.0,17.0,20,0.00,,,0.00,Weather View 32 v70,2013-04-22 03:12:00,
2013-04-21 22:17:00,44.8,6.1,30.33,SSE,152,10.0,16.0,20,0.00,,,0.00,Weather View 32 v70,2013-04-22 03:17:00,
2013-04-21 22:23:00,45.0,6.2,30.33,ESE,104,6.0,16.0,20,0.00,,,0.00,Weather View 32 v70,2013-04-22 03:23:00,
2013-04-21 22:27:00,44.8,6.1,30.33,SE,136,6.0,16.0,20,0.00,,,0.00,Weather View 32 v70,2013-04-22 03:27:00,
2013-04-21 22:33:00,44.8,6.1,30.33,South,170,5.0,16.0,20,0.00,,,0.00,Weather View 32 v70,2013-04-22 03:33:00,
2013-04-21 22:38:00,44.8,6.1,30.30,SSE,160,6.0,16.0,20,0.00,,,0.00,Weather View 32 v70,2013-04-22 03:38:00,
2013-04-21 22:42:00,44.4,5.8,30.30,ESE,112,6.0,16.0,20,0.00,,,0.00,Weather View 32 v70,2013-04-22 03:42:00,
2013-04-21 22:47:00,44.4,5.8,30.30,SSE,152,11.0,16.0,20,0.00,,,0.00,Weather View 32 v70,2013-04-22 03:47:00,
2013-04-21 22:52:00,44.1,5.5,30.33,SE,137,5.0,16.0,20,0.00,,,0.00,Weather View 32 v70,2013-04-22 03:52:00,
2013-04-21 22:57:00,44.1,5.5,30.33,SW,215,0.0,16.0,20,0.00,,,0.00,Weather View 32 v70,2013-04-22 03:57:00,
2013-04-21 23:01:00,43.7,5.2,30.33,ESE,120,5.0,16.0,20,0.00,,,0.00,Weather View 32 v70,2013-04-22 04:01:00,
2013-04-21 23:06:00,43.5,5.1,30.30,SSE,164,8.0,16.0,20,0.00,,,0.00,Weather View 32 v70,2013-04-22 04:06:00,
2013-04-21 23:11:00,43.3,4.9,30.30,SE,145,5.0,16.0,20,0.00,,,0.00,Weather View 32 v70,2013-04-22 04:11:00,
2013-04-21 23:16:00,43.2,4.8,30.30,SSE,165,0.0,16.0,20,0.00,,,0.00,Weather View 32 v70,2013-04-22 04:16:00,
2013-04-21 23:21:00,43.0,4.6,30.30,South,183,3.0,15.0,20,0.00,,,0.00,Weather View 32 v70,2013-04-22 04:21:00,
2013-04-21 23:26:00,42.8,4.4,30.30,ESE,109,4.0,15.0,20,0.00,,,0.00,Weather View 32 v70,2013-04-22 04:26:00,
2013-04-21 23:31:00,43.2,4.8,30.30,SSE,160,4.0,15.0,20,0.00,,,0.00,Weather View 32 v70,2013-04-22 04:31:00,
2013-04-21 23:36:00,42.6,5.4,30.30,SSE,150,8.0,15.0,21,0.00,,,0.00,Weather View 32 v70,2013-04-22 04:36:00,
2013-04-21 23:41:00,43.2,4.8,30.30,SE,135,6.0,15.0,20,0.00,,,0.00,Weather View 32 v70,2013-04-22 04:41:00,
2013-04-21 23:46:00,43.7,5.2,30.30,East,100,6.0,15.0,20,0.00,,,0.00,Weather View 32 v70,2013-04-22 04:46:00,
2013-04-21 23:51:00,43.2,4.8,30.30,SE,145,5.0,15.0,20,0.00,,,0.00,Weather View 32 v70,2013-04-22 04:51:00,
2013-04-21 23:56:00,43.0,4.6,30.30,SE,139,6.0,15.0,20,0.00,,,0.00,Weather View 32 v70,2013-04-22 04:56:00,